[[{"header":{"parameterUnit":"m.s-1","parameterCategory":1,"la1":30.2991,"la2":30.254,"lo1":-89.0895,"lo2":-89.0444,"dy":0.0017,"dx":0.0017,"nx":28,"ny":28,"refTime":"2025-08-24T03:00:00:Z","depth":0,"parameterNumber":2,"parameterNumberName":"U-component_of_WINDS"},"data":[0,0,0,0,0,0,0,0,0,0,0,0,0,0,0,0,0,0,0,0,0,0,0,0,0,0,0,0,0,0,0,0,0,0,0,0,0,0,0,0,0,0,0,0,0,0,0,0,0,0,0,0,0,0,0,0,0,0,0.8278,0.8278,0,0.8262,0.8262,0.8262,0.8265,0.8266,0.8266,0.8266,0.8247,0.8247,0.8246,0,0,0,0,0,0,0,0,0,0,0,0,0,0.8309,0.8309,0.8278,0.8278,0.8278,0.8262,0.8262,0.8262,0.8265,0.8266,0.8266,0.8267,0.8248,0.8247,0.8246,0,0,0,0,0,0,0,0,0,0,0,0,0,0.8295,0.8309,0.8278,0.8278,0.8278,0.8262,0.8262,0.8262,0.8265,0.8266,0.8266,0.8267,0.8248,0.8247,0.8246,0.8229,0,0,0.8242,0.8241,0,0,0,0,0,0,0,0,0.8296,0.8294,0.8278,0.8278,0.8277,0.8266,0.8266,0.8251,0.8265,0.827,0.8266,0.8267,0.8253,0.8252,0.8248,0.8228,0.8227,0.8242,0.8241,0.8241,0.824,0,0,0,0,0,0,0,0.8297,0.8294,0.8272,0.8278,0.8277,0.8278,0.8276,0.8263,0.8259,0.8269,0.827,0.8268,0.8253,0.8249,0.8247,0.8227,0.8242,0.8241,0.824,0.824,0.8194,0.8193,0,0,0,0,0,0,0.8298,0.8295,0.8272,0.8271,0.8288,0.8277,0.8275,0.8269,0.8259,0.8258,0.8268,0.8268,0.825,0.8248,0.8246,0.8226,0.8241,0.824,0.8239,0.8194,0.8194,0.8193,0,0,0,0,0,0,0.8299,0.8296,0.8273,0.8283,0.828,0.8276,0.8269,0.8269,0.8264,0.8258,0.8257,0.8264,0.8251,0.8248,0.8234,0.8226,0.8239,0.8238,0.8195,0.8194,0.8193,0.8186,0,0,0,0,0,0,0.83,0.8296,0.829,0.8283,0.828,0.8261,0.8269,0.8268,0.8263,0.8263,0.8254,0.8253,0.8251,0.8235,0.8233,0.8224,0.8237,0.8196,0.8195,0.8194,0.8187,0.8185,0.8184,0,0,0,0,0,0.8301,0.8288,0.829,0.8287,0.8272,0.826,0.8258,0.8257,0.8262,0.8256,0.8252,0.8253,0.8228,0.8234,0.8231,0.8222,0.8196,0.8195,0.8194,0.8188,0.8186,0.8184,0,0,0,0,0,0,0.8293,0.8287,0.8289,0.8274,0.8268,0.8261,0.8253,0.8255,0.8246,0.8247,0.8245,0.8243,0.8228,0.8224,0.8231,0.8206,0.8212,0.8211,0.8209,0.8207,0.8205,0.8206,0.8236,0,0,0,0,0,0.829,0.8282,0.8277,0.8264,0.8261,0.8258,0.8252,0.8252,0.8245,0.8242,0.8237,0.8229,0.822,0.8213,0.8204,0.8187,0.8185,0.818,0.8178,0.8177,0.8175,0.8165,0.8163,0.8189,0.819,0.819,0,0,0.8283,0.8279,0.8273,0.8262,0.8257,0.8248,0.8255,0.8245,0.8238,0.824,0.8226,0.8223,0.8214,0.8199,0.8191,0.8194,0.8167,0.8175,0.8174,0.8173,0.8164,0.8161,0.8159,0.8189,0.8189,0.8189,0,0,0.8265,0.8261,0.825,0.8246,0.8239,0.8237,0.8234,0.8228,0.8225,0.8212,0.8214,0.8205,0.8188,0.8182,0.8177,0.8159,0.816,0.8156,0.8146,0.8137,0.8135,0.8133,0.8126,0.8124,0.8154,0.8154,0.8154,0,0.8256,0.8243,0.8244,0.8234,0.8229,0.8232,0.8221,0.8216,0.8206,0.8202,0.8206,0.8186,0.818,0.8163,0.8159,0.8155,0.8151,0.8156,0.8136,0.8134,0.8132,0.8125,0.8123,0.8153,0.8153,0.8153,0.8154,0,0.8233,0.8224,0.8216,0.8207,0.8202,0.8191,0.8189,0.8183,0.8184,0.8181,0.8168,0.8162,0.8151,0.8148,0.8147,0.8131,0.8133,0.8136,0.8143,0.8129,0.8123,0.812,0.8153,0.8153,0.8153,0.8153,0,0,0.8208,0.8202,0.8198,0.8195,0.8188,0.8181,0.817,0.8161,0.8156,0.815,0.814,0.8127,0.813,0.8124,0.8124,0.8116,0.8102,0.8121,0.812,0.8117,0.8083,0.8079,0.8076,0.8103,0.8102,0.8102,0.8083,0,0.8189,0.8172,0.8172,0.8155,0.8147,0.8151,0.8142,0.8136,0.8134,0.8126,0.8123,0.8114,0.8119,0.8116,0.8109,0.8105,0.8095,0.8106,0.8093,0.8093,0.8094,0.8073,0.8069,0.8052,0.8081,0.808,0.808,0,0.8164,0.8158,0.8141,0.8136,0.8132,0.8124,0.8116,0.8109,0.8103,0.8102,0.8096,0.8097,0.8086,0.8094,0.8079,0.8087,0.8082,0.8079,0.8078,0.8076,0.8085,0.8069,0.8046,0.8043,0.8076,0.8076,0.8077,0,0.8147,0.8135,0.8123,0.812,0.8114,0.8108,0.8105,0.81,0.8095,0.8088,0.8084,0.8076,0.8071,0.8064,0.8063,0.8069,0.8047,0.8055,0.8045,0.8045,0.804,0.804,0.8014,0.8038,0.8038,0.8038,0.8038,0,0.8125,0.8114,0.8115,0.8107,0.8095,0.8097,0.8084,0.8082,0.8078,0.8069,0.8072,0.8064,0.8063,0.8055,0.8054,0.8041,0.8039,0.8037,0.8037,0.8037,0.8037,0.8032,0.8033,0.8037,0.8038,0.8038,0.8038,0,0.8104,0.8104,0.8091,0.8087,0.8086,0.8077,0.8074,0.8067,0.8066,0.8055,0.8053,0.805,0.8041,0.8039,0.8028,0.8027,0.8012,0.8013,0.8014,0.8014,0.8004,0.8005,0.7974,0.7969,0.7997,0.7997,0.7997,0,0.8089,0.8081,0.8077,0.8072,0.8069,0.8061,0.8057,0.8058,0.8052,0.8046,0.8039,0.803,0.8023,0.8008,0.8005,0.7996,0.7997,0.7987,0.7995,0.7995,0.7996,0.7996,0.7995,0.7984,0.7984,0.7984,0.7984,0,0.8063,0.8064,0.8057,0.8051,0.8045,0.804,0.8035,0.8031,0.8031,0.8025,0.8016,0.8011,0.8,0.7991,0.7982,0.7979,0.7981,0.7981,0.7978,0.7977,0.7978,0.7977,0.8008,0.7982,0.7982,0.7982,0.7982,0.7982,0.8044,0.8037,0.8033,0.8026,0.8023,0.8018,0.8011,0.801,0.8003,0.7995,0.7996,0.7986,0.7981,0.797,0.7966,0.7958,0.7961,0.7957,0.7956,0.7955,0.7953,0.798,0.7956,0.7957,0.7957,0.7957,0.7957,0,0.8017,0.8016,0.8009,0.8003,0.7997,0.8001,0.7996,0.7991,0.7982,0.7978,0.7971,0.7961,0.7952,0.7949,0.7941,0.7935,0.7936,0.7933,0.7933,0.7932,0.7951,0.7954,0.7932,0.7932,0.7932,0.7932,0.7932,0.7932,0.8003,0.7991,0.7992,0.7979,0.7977,0.7968,0.7965,0.7961,0.7957,0.7946,0.7939,0.7938,0.7934,0.7926,0.7918,0.7918,0.7914,0.791,0.791,0.7928,0.793,0.7933,0.7935,0.791,0.791,0.7891,0.7891,0.789]},{"header":{"parameterUnit":"m.s-1","parameterCategory":1,"la1":30.2991,"la2":30.254,"lo1":-89.0895,"lo2":-89.0444,"dy":0.0017,"dx":0.0017,"nx":28,"ny":28,"refTime":"2025-08-24T03:00:00:Z","depth":0,"parameterNumber":3,"parameterNumberName":"V-component_of_WINDS"},"data":[0,0,0,0,0,0,0,0,0,0,0,0,0,0,0,0,0,0,0,0,0,0,0,0,0,0,0,0,0,0,0,0,0,0,0,0,0,0,0,0,0,0,0,0,0,0,0,0,0,0,0,0,0,0,0,0,0,0,-3.5653,-3.5655,0,-3.5793,-3.5794,-3.5796,-3.5777,-3.5775,-3.5773,-3.5771,-3.591,-3.5915,-3.5921,0,0,0,0,0,0,0,0,0,0,0,0,0,-3.5367,-3.5372,-3.5653,-3.5655,-3.5657,-3.5793,-3.5795,-3.5796,-3.5778,-3.5775,-3.5772,-3.5769,-3.5908,-3.5915,-3.5922,0,0,0,0,0,0,0,0,0,0,0,0,0,-3.5497,-3.5374,-3.5653,-3.5664,-3.5666,-3.5792,-3.5795,-3.5797,-3.5778,-3.5775,-3.5771,-3.5768,-3.5905,-3.5914,-3.5923,-3.6046,0,0,-3.5949,-3.5953,0,0,0,0,0,0,0,0,-3.549,-3.5508,-3.566,-3.5663,-3.5666,-3.5764,-3.5744,-3.588,-3.5779,-3.5736,-3.577,-3.5766,-3.5864,-3.5876,-3.5909,-3.6052,-3.6058,-3.595,-3.5955,-3.5959,-3.5962,0,0,0,0,0,0,0,-3.5481,-3.5501,-3.5708,-3.5663,-3.5666,-3.566,-3.5675,-3.577,-3.5817,-3.5739,-3.5738,-3.5755,-3.5865,-3.5901,-3.5912,-3.606,-3.595,-3.5958,-3.5963,-3.5966,-3.631,-3.6314,0,0,0,0,0,0,-3.5469,-3.5494,-3.5704,-3.5712,-3.5568,-3.5668,-3.5685,-3.5736,-3.5816,-3.5825,-3.5758,-3.5754,-3.5888,-3.5902,-3.5917,-3.6066,-3.5959,-3.5967,-3.5972,-3.6306,-3.6311,-3.6315,0,0,0,0,0,0,-3.5463,-3.5488,-3.5698,-3.5603,-3.5629,-3.5677,-3.5735,-3.5741,-3.5777,-3.583,-3.5838,-3.5787,-3.5886,-3.5905,-3.6014,-3.6071,-3.5971,-3.5979,-3.6301,-3.6307,-3.6313,-3.6365,0,0,0,0,0,0,-3.5455,-3.5486,-3.5534,-3.5604,-3.5635,-3.5794,-3.5738,-3.5746,-3.5793,-3.5789,-3.5859,-3.5868,-3.5884,-3.6001,-3.6023,-3.6081,-3.5986,-3.6297,-3.6304,-3.6311,-3.6359,-3.6372,-3.6384,0,0,0,0,0,-3.5445,-3.5543,-3.5537,-3.5562,-3.5696,-3.5797,-3.5814,-3.5833,-3.5797,-3.5846,-3.588,-3.5866,-3.6061,-3.6012,-3.6037,-3.6098,-3.6293,-3.6302,-3.631,-3.6353,-3.637,-3.6384,0,0,0,0,0,0,-3.5477,-3.5552,-3.5546,-3.567,-3.5728,-3.5794,-3.5855,-3.5849,-3.5917,-3.591,-3.5929,-3.5945,-3.6055,-3.6088,-3.6032,-3.6221,-3.6172,-3.6186,-3.6196,-3.6212,-3.6225,-3.6214,-3.5993,0,0,0,0,0,-3.5498,-3.5576,-3.5637,-3.574,-3.5769,-3.5807,-3.5852,-3.5861,-3.5921,-3.5945,-3.5987,-3.6044,-3.6119,-3.6167,-3.6239,-3.6363,-3.6378,-3.6418,-3.643,-3.644,-3.6452,-3.652,-3.6538,-3.6343,-3.6343,-3.6343,0,0,-3.5543,-3.5594,-3.5641,-3.5748,-3.5793,-3.5872,-3.5828,-3.5913,-3.5971,-3.5957,-3.6063,-3.6096,-3.6161,-3.6279,-3.6332,-3.6309,-3.6509,-3.6451,-3.6459,-3.6465,-3.6531,-3.6549,-3.6565,-3.6349,-3.6348,-3.6347,0,0,-3.5666,-3.5712,-3.5803,-3.585,-3.592,-3.5945,-3.5967,-3.6034,-3.6056,-3.6163,-3.6154,-3.6223,-3.6351,-3.6398,-3.6438,-3.6578,-3.6567,-3.6601,-3.6666,-3.6732,-3.6747,-3.6761,-3.681,-3.6828,-3.6612,-3.6612,-3.6612,0,-3.5712,-3.5832,-3.585,-3.5937,-3.5983,-3.5976,-3.6067,-3.6111,-3.6201,-3.6232,-3.6205,-3.6366,-3.6409,-3.6537,-3.6571,-3.6605,-3.6629,-3.6593,-3.6744,-3.6757,-3.677,-3.6818,-3.6836,-3.6616,-3.6615,-3.6615,-3.6615,0,-3.5885,-3.5968,-3.6033,-3.6121,-3.6174,-3.6263,-3.6294,-3.6346,-3.635,-3.6377,-3.6486,-3.6538,-3.6619,-3.665,-3.6655,-3.6779,-3.6762,-3.6739,-3.669,-3.6792,-3.6837,-3.6855,-3.6621,-3.662,-3.6619,-3.6618,0,0,-3.6031,-3.6129,-3.6152,-3.6192,-3.6269,-3.6332,-3.642,-3.6501,-3.6545,-3.6607,-3.668,-3.6788,-3.6768,-3.6814,-3.6823,-3.6881,-3.6988,-3.6851,-3.6853,-3.6875,-3.7128,-3.7144,-3.7165,-3.6982,-3.6985,-3.6988,-3.7122,0,-3.6161,-3.6317,-3.6337,-3.6475,-3.6551,-3.6545,-3.6621,-3.6676,-3.6704,-3.6771,-3.6801,-3.6878,-3.6845,-3.6873,-3.693,-3.6963,-3.7039,-3.6954,-3.7049,-3.7052,-3.7033,-3.7189,-3.7207,-3.733,-3.714,-3.7143,-3.7145,0,-3.6333,-3.6401,-3.6547,-3.6614,-3.6646,-3.6714,-3.679,-3.6855,-3.6917,-3.6933,-3.6984,-3.6987,-3.7076,-3.7023,-3.7146,-3.7087,-3.7127,-3.7149,-3.7155,-3.7164,-3.7104,-3.7202,-3.737,-3.7389,-3.7173,-3.717,-3.7168,0,-3.6424,-3.6552,-3.6656,-3.669,-3.677,-3.6819,-3.6854,-3.6912,-3.6959,-3.7025,-3.7056,-3.7131,-3.7172,-3.7229,-3.7251,-3.7211,-3.7372,-3.7321,-3.7387,-3.7386,-3.7421,-3.7418,-3.7598,-3.7447,-3.7447,-3.7447,-3.7446,0,-3.6567,-3.6656,-3.6699,-3.6763,-3.6863,-3.6883,-3.6981,-3.7014,-3.7066,-3.7136,-3.7135,-3.7199,-3.7225,-3.7293,-3.7311,-3.7409,-3.7428,-3.7442,-3.7446,-3.7442,-3.7441,-3.7469,-3.746,-3.7452,-3.745,-3.7449,-3.7449,0,-3.6686,-3.6718,-3.6831,-3.6898,-3.6916,-3.6987,-3.7044,-3.7105,-3.7132,-3.722,-3.7241,-3.7283,-3.7364,-3.7392,-3.7489,-3.7501,-3.7615,-3.7611,-3.7595,-3.7596,-3.7659,-3.7653,-3.7863,-3.7892,-3.7722,-3.7724,-3.7725,0,-3.6775,-3.6844,-3.6918,-3.6965,-3.7003,-3.7078,-3.7127,-3.715,-3.72,-3.7276,-3.7328,-3.7408,-3.7474,-3.7602,-3.7641,-3.7715,-3.7713,-3.7781,-3.7724,-3.7718,-3.7713,-3.7709,-3.7716,-3.7792,-3.7794,-3.7795,-3.7796,0,-3.6929,-3.6941,-3.7012,-3.7089,-3.7147,-3.7209,-3.7268,-3.7306,-3.7337,-3.7394,-3.7477,-3.7528,-3.7628,-3.7708,-3.7784,-3.7818,-3.7813,-3.7814,-3.7833,-3.783,-3.7818,-3.7825,-3.7624,-3.7809,-3.7808,-3.7807,-3.7806,-3.7806,-3.7035,-3.7096,-3.7158,-3.7237,-3.7284,-3.734,-3.7401,-3.7435,-3.7506,-3.759,-3.7599,-3.7688,-3.7747,-3.7849,-3.7887,-3.7956,-3.7937,-3.7965,-3.7972,-3.7978,-3.7983,-3.7807,-3.797,-3.797,-3.7969,-3.7969,-3.7969,0,-3.7189,-3.7228,-3.7301,-3.7384,-3.7446,-3.7437,-3.7502,-3.7554,-3.7633,-3.7689,-3.7754,-3.7849,-3.7926,-3.7971,-3.8047,-3.8094,-3.8093,-3.8114,-3.811,-3.8118,-3.7996,-3.7972,-3.8113,-3.8113,-3.8113,-3.8113,-3.8113,-3.8113,-3.7276,-3.7379,-3.7398,-3.7524,-3.7563,-3.7651,-3.7689,-3.774,-3.7785,-3.7892,-3.7956,-3.7985,-3.8036,-3.8117,-3.8187,-3.8198,-3.8226,-3.8248,-3.8257,-3.8142,-3.8127,-3.8113,-3.809,-3.8254,-3.8254,-3.8374,-3.8375,-3.8376]}]]